Погода в Тебризе

Иран     38°05′17″N   46°16′07″E
темп.,
°C
ветер,
м/с
пор.,
м/с
влажн.,
%
обл.,
%
осадки,
мм/ч
давл.,
гПа
погр.,
м
6 марта, сб
сб600:30+1юз11800 0.0 102446
03:300зюз22800 0.0 102463
06:300зюз22760 0.0 102579
09:30+2з23690 0.0 1025350
12:30+5з45540 0.0 1022743
15:30+7з45440 0.0 1019905
18:30+6зюз34480 0.0 1020527
21:30+5зюз22460 0.0 1020236
7 марта, вс
вс700:30+4зюз115115 0.0 101925
03:30+3з015730 0.0 101722
06:30+2зсз1160100 0.0 101836
09:30+3з347094 0.0 1017571
12:30+7з554752 0.0 1015992
15:30+8з443626 0.0 10141160
18:30+7з11390 0.0 1015786
21:30+6ююз11410 0.0 1017131
8 марта, пн
пн800:30+5ююв11440 0.0 101736
03:30+3вюв11490 0.0 101643
06:30+2в12540 0.0 101775
09:30+4св11490 0.0 1016446
12:30+8зюз58310 0.0 10121697
15:30+9юз1115260 0.0 10082266
18:30+8юз815410 0.0 10081884
21:30+6ююз1015482 0.0 10101536
9 марта, вт
вт900:30+5юз8115133 0.0 10111061
03:30+3зюз496831 0.2 1012650
06:30+2зюз367362 0.2 1013442
09:30+4з576476 0.3 1014970
12:30+7зюз894956 0.1 10131519
15:30+8зюз893432 0.1 10111621
18:30+6зюз673683 0.0 10141144
21:30+5юз584591 0.0 1017669
10 марта, ср
ср1000:30+4юз585295 0.0 1018594
03:30+3юз475254 0.0 1018520
06:30+2зюз37600 0.0 1019485
09:30+3з46500 0.0 1019716
12:30+7з67387 0.0 10161060
15:30+8зюз68294 0.0 10131318
18:30+7зюз583747 0.0 10141009
21:30+6юз474574 0.0 1014760